Terminal Aerodrome Forecast
Issued by NWS

Home | Current Version | Previous Version | Text Only | Print | Product List | Glossary On
Versions: 1 2 3 4 5 6 7 8 9 10 11 12 13 14 15 16 17 18 19 20 21
000
FTUS41 KBGM 221100
TAFELM
TAF
KELM 221133Z 2212/2312 32006KT P6SM SCT015 OVC025
      TEMPO 2212/2214 OVC015
     FM221400 33012G20KT P6SM OVC025
     FM221600 31012G20KT P6SM BKN035
     FM230000 26005KT P6SM FEW035=

USA.gov is the U.S. government's official web portal to all federal, state and local government web resources and services.